DLH422 EDDF-KBOS

Flight info

Callsign DLH422
Flight time 7h 29m
Altitude 36000
Route OBOKA3M OBOKA Z28 DIBIR DCT BUDIP DCT RAVLO Y70 OTBED L60 PENIL M144 BAGSO DCT ADBUS DCT DOGAL/M081F380 DCT 54N020W 53N030W 5130N04000W 50N050W DCT ELSIR/N0463F380 DCT TUSKY DCT EURRO OOSHN5
Aircraft A333/H-V/N

Departure

Time 2026-05-07 05:45
Airport Frankfurt Main Airport (EDDF)

Arrival

Time 2026-05-07 13:14
Airport Boston Logan International Airport (KBOS)
Time Latitude Longitude Altitude Speed Heading
2026-05-07 05:32 50.04800 8.56924 361 ft 0 kts 295°
2026-05-07 05:35 50.04795 8.56940 342 ft 2 kts 295°
2026-05-07 05:35 50.04788 8.56963 354 ft 2 kts 295°
2026-05-07 05:36 50.04781 8.56986 368 ft 2 kts 295°
2026-05-07 05:36 50.04777 8.57010 361 ft 2 kts 262°
2026-05-07 05:36 50.04781 8.57030 361 ft 0 kts 211°
2026-05-07 05:37 50.04781 8.57029 361 ft 1 kts 211°
2026-05-07 05:37 50.04741 8.56998 365 ft 7 kts 206°
2026-05-07 05:38 50.04689 8.56959 368 ft 7 kts 204°
2026-05-07 05:38 50.04626 8.56921 364 ft 12 kts 198°
2026-05-07 05:38 50.04563 8.56894 366 ft 9 kts 194°
2026-05-07 05:38 50.04493 8.56944 363 ft 17 kts 104°
2026-05-07 05:39 50.04517 8.57103 364 ft 14 kts 70°
2026-05-07 05:39 50.04551 8.57241 364 ft 13 kts 69°
2026-05-07 05:39 50.04583 8.57375 364 ft 13 kts 69°
2026-05-07 05:39 50.04616 8.57513 366 ft 15 kts 70°
2026-05-07 05:40 50.04649 8.57652 367 ft 13 kts 69°
2026-05-07 05:40 50.04682 8.57789 368 ft 13 kts 69°
2026-05-07 05:40 50.04697 8.57905 368 ft 11 kts 96°
2026-05-07 05:40 50.04637 8.57992 366 ft 13 kts 157°
2026-05-07 05:41 50.04574 8.58096 370 ft 20 kts 97°
2026-05-07 05:41 50.04602 8.58267 378 ft 13 kts 71°
2026-05-07 05:41 50.04624 8.58367 373 ft 7 kts 70°
2026-05-07 05:41 50.04645 8.58451 374 ft 8 kts 69°
2026-05-07 05:42 50.04651 8.58513 374 ft 4 kts 105°
2026-05-07 05:42 50.04603 8.58583 374 ft 8 kts 158°
2026-05-07 05:42 50.04562 8.58607 375 ft 5 kts 161°
2026-05-07 05:42 50.04525 8.58612 376 ft 6 kts 190°
2026-05-07 05:43 50.04499 8.58598 375 ft 2 kts 208°
2026-05-07 05:43 50.04491 8.58589 375 ft 7 kts 214°
2026-05-07 05:43 50.04479 8.58554 375 ft 0 kts 249°
2026-05-07 05:44 50.04407 8.58250 376 ft 67 kts 250°
2026-05-07 05:44 50.04149 8.57179 374 ft 143 kts 250°
2026-05-07 05:45 50.03730 8.55418 620 ft 197 kts 250°
2026-05-07 05:45 50.03244 8.53440 1675 ft 195 kts 251°
2026-05-07 05:45 50.02747 8.51451 2787 ft 198 kts 252°
2026-05-07 05:45 50.02215 8.49471 3876 ft 202 kts 246°
2026-05-07 05:46 50.01406 8.47652 4847 ft 210 kts 232°
2026-05-07 05:46 50.00207 8.46207 5627 ft 225 kts 210°
2026-05-07 05:46 49.98700 8.45567 6630 ft 225 kts 189°
2026-05-07 05:46 49.97113 8.45586 7446 ft 238 kts 175°
2026-05-07 05:47 49.95432 8.45846 8469 ft 241 kts 179°
2026-05-07 05:47 49.93732 8.45810 9360 ft 254 kts 194°
2026-05-07 05:47 49.92631 8.45151 9941 ft 257 kts 217°
2026-05-07 05:47 49.92135 8.44610 10215 ft 261 kts 222°
2026-05-07 05:48 49.91013 8.43015 10904 ft 271 kts 230°
2026-05-07 05:48 49.89822 8.40639 11691 ft 287 kts 246°
2026-05-07 05:48 49.89175 8.37600 12357 ft 308 kts 259°
2026-05-07 05:48 49.88865 8.34240 13086 ft 328 kts 266°
2026-05-07 05:49 49.88996 8.30635 13889 ft 344 kts 284°
2026-05-07 05:49 49.89765 8.27021 14655 ft 360 kts 293°
2026-05-07 05:49 49.90867 8.23434 15479 ft 375 kts 298°
2026-05-07 05:49 49.92264 8.19944 16331 ft 388 kts 308°
2026-05-07 05:50 49.94103 8.16780 17231 ft 401 kts 314°
2026-05-07 05:50 49.96121 8.13714 18296 ft 408 kts 316°
2026-05-07 05:50 49.97503 8.11707 18931 ft 413 kts 317°
2026-05-07 05:50 50.00345 8.07704 20231 ft 420 kts 317°
2026-05-07 05:51 50.01831 8.05651 20903 ft 424 kts 318°
2026-05-07 05:51 50.04040 8.02629 21862 ft 430 kts 318°
2026-05-07 05:51 50.06317 7.99539 22818 ft 436 kts 318°
2026-05-07 05:51 50.08631 7.96412 23728 ft 443 kts 318°
2026-05-07 05:52 50.10985 7.93239 24558 ft 448 kts 319°
2026-05-07 05:52 50.13328 7.90079 25363 ft 453 kts 319°
2026-05-07 05:52 50.15727 7.86848 26174 ft 458 kts 319°
2026-05-07 05:52 50.18163 7.83572 26991 ft 464 kts 319°
2026-05-07 05:53 50.20636 7.80248 27814 ft 469 kts 319°
2026-05-07 05:53 50.23126 7.76977 28579 ft 475 kts 322°
2026-05-07 05:53 50.25914 7.74145 29422 ft 479 kts 329°
2026-05-07 05:53 50.28844 7.71661 30487 ft 478 kts 333°
2026-05-07 05:54 50.31838 7.69369 31353 ft 478 kts 334°
2026-05-07 05:54 50.34884 7.67191 32161 ft 480 kts 335°
2026-05-07 05:54 50.37907 7.65094 32957 ft 482 kts 336°
2026-05-07 05:54 50.40992 7.62987 33761 ft 483 kts 336°
2026-05-07 05:55 50.44084 7.60890 34457 ft 484 kts 336°
2026-05-07 05:55 50.47200 7.58787 35109 ft 486 kts 336°
2026-05-07 05:55 50.50288 7.56703 35564 ft 492 kts 335°
2026-05-07 05:55 50.53438 7.54484 35816 ft 494 kts 332°
2026-05-07 05:56 50.56458 7.51906 35908 ft 494 kts 329°
2026-05-07 05:56 50.58613 7.49898 35930 ft 494 kts 327°
2026-05-07 05:57 50.61643 7.46949 35948 ft 494 kts 326°
2026-05-07 05:57 50.63583 7.45009 35963 ft 493 kts 326°
2026-05-07 05:58 50.69316 7.39147 35977 ft 492 kts 326°
2026-05-07 05:58 50.74544 7.32294 35998 ft 488 kts 309°
2026-05-07 05:59 50.78740 7.23942 35997 ft 487 kts 306°
2026-05-07 05:59 50.82738 7.15267 35994 ft 486 kts 304°
2026-05-07 06:00 50.86621 7.06571 35994 ft 486 kts 304°
2026-05-07 06:00 50.90511 6.97765 35996 ft 485 kts 304°
2026-05-07 06:01 50.94354 6.89030 35993 ft 485 kts 304°
2026-05-07 06:01 50.98215 6.80247 35991 ft 485 kts 304°
2026-05-07 06:02 51.02090 6.71428 35992 ft 485 kts 304°
2026-05-07 06:02 51.05925 6.62695 36010 ft 484 kts 304°
2026-05-07 06:03 51.09775 6.53880 36019 ft 484 kts 304°
2026-05-07 06:03 51.13608 6.45045 36018 ft 484 kts 304°
2026-05-07 06:04 51.17402 6.36275 36022 ft 484 kts 304°
2026-05-07 06:04 51.21215 6.27446 36016 ft 483 kts 304°
2026-05-07 06:05 51.25029 6.18602 36009 ft 483 kts 304°
2026-05-07 06:05 51.28797 6.09681 36017 ft 483 kts 303°
2026-05-07 06:06 51.32499 6.00707 36019 ft 483 kts 302°
2026-05-07 06:06 51.34288 5.96334 36019 ft 483 kts 302°
2026-05-07 06:07 51.38244 5.87646 36023 ft 483 kts 310°
2026-05-07 06:07 51.42738 5.79635 36013 ft 483 kts 312°
2026-05-07 06:08 51.47327 5.71745 36028 ft 483 kts 312°
2026-05-07 06:08 51.51917 5.63913 36021 ft 483 kts 313°
2026-05-07 06:09 51.54935 5.58768 36017 ft 483 kts 313°
2026-05-07 06:09 51.59520 5.50946 36033 ft 483 kts 313°
2026-05-07 06:10 51.64117 5.43091 36022 ft 483 kts 312°
2026-05-07 06:10 51.68730 5.35189 36025 ft 482 kts 312°
2026-05-07 06:11 51.73314 5.27311 36027 ft 482 kts 312°
2026-05-07 06:11 51.77903 5.19401 36032 ft 482 kts 312°
2026-05-07 06:12 51.82496 5.11463 36028 ft 482 kts 312°
2026-05-07 06:12 51.87045 5.03575 36035 ft 482 kts 312°
2026-05-07 06:13 51.91637 4.95591 36032 ft 482 kts 312°
2026-05-07 06:13 51.96185 4.87657 36038 ft 482 kts 312°
2026-05-07 06:14 52.00723 4.79717 36037 ft 481 kts 312°
2026-05-07 06:14 52.04451 4.73174 36038 ft 481 kts 311°
2026-05-07 06:15 52.09006 4.65153 36040 ft 481 kts 311°
2026-05-07 06:15 52.13523 4.57174 36042 ft 481 kts 311°
2026-05-07 06:16 52.18043 4.49165 36045 ft 481 kts 311°
2026-05-07 06:16 52.22571 4.41117 36043 ft 481 kts 311°
2026-05-07 06:17 52.27097 4.33045 36048 ft 481 kts 311°
2026-05-07 06:17 52.31594 4.25000 36048 ft 481 kts 311°
2026-05-07 06:18 52.36112 4.16892 36051 ft 481 kts 311°
2026-05-07 06:18 52.40617 4.08777 36056 ft 481 kts 311°
2026-05-07 06:19 52.45093 4.00688 36056 ft 480 kts 311°
2026-05-07 06:19 52.49576 3.92557 36061 ft 480 kts 311°
2026-05-07 06:20 52.54057 3.84405 36058 ft 480 kts 311°
2026-05-07 06:20 52.58529 3.76237 36059 ft 480 kts 311°
2026-05-07 06:21 52.62977 3.68088 36055 ft 480 kts 311°
2026-05-07 06:21 52.67411 3.59939 36055 ft 480 kts 311°
2026-05-07 06:22 52.71862 3.51732 36062 ft 480 kts 311°
2026-05-07 06:22 52.78538 3.39373 36059 ft 480 kts 311°
2026-05-07 06:23 52.82980 3.31117 36060 ft 480 kts 311°
2026-05-07 06:23 52.87395 3.22882 36056 ft 480 kts 311°
2026-05-07 06:24 52.91160 3.13848 36086 ft 481 kts 290°
2026-05-07 06:24 52.93022 3.03169 36069 ft 483 kts 285°
2026-05-07 06:25 52.94567 2.92404 36073 ft 484 kts 283°
2026-05-07 06:25 52.96033 2.81491 36074 ft 484 kts 283°
2026-05-07 06:26 52.97464 2.70551 36079 ft 485 kts 283°
2026-05-07 06:26 52.98872 2.59656 36078 ft 485 kts 283°
2026-05-07 06:27 53.00278 2.48670 36079 ft 486 kts 283°
2026-05-07 06:27 53.01677 2.37663 36076 ft 486 kts 283°
2026-05-07 06:28 53.03059 2.26716 36079 ft 486 kts 283°
2026-05-07 06:28 53.04434 2.15750 36077 ft 487 kts 283°
2026-05-07 06:29 53.05800 2.04715 36077 ft 487 kts 282°
2026-05-07 06:29 53.07148 1.93698 36076 ft 487 kts 282°
2026-05-07 06:30 53.08491 1.82642 36079 ft 487 kts 282°
2026-05-07 06:30 53.09826 1.71564 36081 ft 487 kts 282°
2026-05-07 06:31 53.11144 1.60550 36078 ft 488 kts 282°
2026-05-07 06:31 53.12459 1.49472 36083 ft 488 kts 282°
2026-05-07 06:32 53.13766 1.38370 36080 ft 488 kts 282°
2026-05-07 06:32 53.15062 1.27270 36082 ft 488 kts 282°
2026-05-07 06:33 53.16345 1.16192 36082 ft 488 kts 282°
2026-05-07 06:33 53.17624 1.05050 36078 ft 488 kts 282°
2026-05-07 06:34 53.18892 0.93900 36081 ft 488 kts 281°
2026-05-07 06:34 53.20142 0.82813 36083 ft 489 kts 281°
2026-05-07 06:35 53.21390 0.71649 36075 ft 489 kts 281°
2026-05-07 06:35 53.22420 0.62361 36074 ft 489 kts 281°
2026-05-07 06:36 53.23851 0.49354 36079 ft 489 kts 281°
2026-05-07 06:36 53.24864 0.40063 36074 ft 489 kts 281°
2026-05-07 06:37 53.26268 0.27051 36077 ft 489 kts 281°
2026-05-07 06:37 53.27265 0.17710 36076 ft 489 kts 281°
2026-05-07 06:38 53.28450 0.06509 36076 ft 489 kts 281°
2026-05-07 06:38 53.29618 -0.04647 36079 ft 489 kts 281°
2026-05-07 06:39 53.30784 -0.15889 36075 ft 489 kts 281°
2026-05-07 06:39 53.31928 -0.27043 36073 ft 489 kts 280°
2026-05-07 06:40 53.33067 -0.38263 36076 ft 489 kts 280°
2026-05-07 06:40 53.34196 -0.49435 36071 ft 489 kts 280°
2026-05-07 06:41 53.35320 -0.60657 36075 ft 488 kts 280°
2026-05-07 06:41 53.36429 -0.71844 36070 ft 488 kts 280°
2026-05-07 06:42 53.37530 -0.83074 36073 ft 488 kts 280°
2026-05-07 06:42 53.38619 -0.94319 36068 ft 488 kts 279°
2026-05-07 06:43 53.39688 -1.05479 36067 ft 488 kts 279°
2026-05-07 06:43 53.40757 -1.16724 36065 ft 488 kts 279°
2026-05-07 06:44 53.41814 -1.27976 36070 ft 487 kts 279°
2026-05-07 06:44 53.42854 -1.39161 36067 ft 487 kts 279°
2026-05-07 06:45 53.43889 -1.50430 36062 ft 487 kts 279°
2026-05-07 06:45 53.44908 -1.61620 36064 ft 488 kts 279°
2026-05-07 06:46 53.45925 -1.72899 36057 ft 488 kts 279°
2026-05-07 06:46 53.46925 -1.84097 36048 ft 488 kts 279°
2026-05-07 06:47 53.47922 -1.95382 36053 ft 488 kts 279°
2026-05-07 06:47 53.48906 -2.06687 36049 ft 488 kts 278°
2026-05-07 06:48 53.49872 -2.17921 36046 ft 488 kts 278°
2026-05-07 06:48 53.50831 -2.29165 36047 ft 488 kts 278°
2026-05-07 06:49 53.51784 -2.40480 36048 ft 488 kts 278°
2026-05-07 06:49 53.52722 -2.51726 36042 ft 488 kts 278°
2026-05-07 06:50 53.53652 -2.63037 36040 ft 487 kts 278°
2026-05-07 06:50 53.54572 -2.74363 36042 ft 487 kts 277°
2026-05-07 06:51 53.55472 -2.85590 36042 ft 487 kts 277°
2026-05-07 06:51 53.56366 -2.96895 36040 ft 487 kts 277°
2026-05-07 06:52 53.57249 -3.08197 36038 ft 487 kts 277°
2026-05-07 06:52 53.58122 -3.19521 36036 ft 487 kts 277°
2026-05-07 06:53 53.58978 -3.30772 36027 ft 487 kts 277°
2026-05-07 06:53 53.59828 -3.42112 36020 ft 486 kts 277°
2026-05-07 06:54 53.60661 -3.53387 36011 ft 486 kts 277°
2026-05-07 06:54 53.61437 -3.64641 36005 ft 486 kts 275°
2026-05-07 06:55 53.62018 -3.76023 36001 ft 486 kts 274°
2026-05-07 06:55 53.62492 -3.87322 36001 ft 485 kts 273°
2026-05-07 06:56 53.62937 -3.98702 35997 ft 485 kts 273°
2026-05-07 06:56 53.63377 -4.09985 35997 ft 485 kts 273°
2026-05-07 06:57 53.63812 -4.21347 35993 ft 484 kts 273°
2026-05-07 06:57 53.64238 -4.32692 35994 ft 484 kts 273°
2026-05-07 06:58 53.64656 -4.43964 35992 ft 484 kts 272°
2026-05-07 06:58 53.65066 -4.55300 35990 ft 483 kts 272°
2026-05-07 06:59 53.65459 -4.66544 35989 ft 483 kts 272°
2026-05-07 06:59 53.65838 -4.77862 35985 ft 483 kts 272°
2026-05-07 07:00 53.66210 -4.89181 35984 ft 483 kts 272°
2026-05-07 07:00 53.66570 -5.00422 35987 ft 482 kts 272°
2026-05-07 07:01 53.66920 -5.11750 35980 ft 482 kts 272°
2026-05-07 07:01 53.67257 -5.22981 35980 ft 481 kts 271°
2026-05-07 07:02 53.67581 -5.34278 35976 ft 481 kts 271°
2026-05-07 07:02 53.67946 -5.45519 35976 ft 481 kts 276°
2026-05-07 07:03 53.69117 -5.56665 35979 ft 482 kts 280°
2026-05-07 07:03 53.70524 -5.67697 35978 ft 482 kts 281°
2026-05-07 07:04 53.71982 -5.78752 35970 ft 482 kts 281°
2026-05-07 07:04 53.73445 -5.89826 35965 ft 482 kts 281°
2026-05-07 07:05 53.74896 -6.00857 35964 ft 482 kts 281°
2026-05-07 07:05 53.76343 -6.11925 35966 ft 482 kts 281°
2026-05-07 07:06 53.77774 -6.22938 35963 ft 482 kts 281°
2026-05-07 07:06 53.79209 -6.34045 35962 ft 482 kts 281°
2026-05-07 07:07 53.80625 -6.45073 35958 ft 482 kts 281°
2026-05-07 07:07 53.82039 -6.56188 35953 ft 481 kts 281°
2026-05-07 07:08 53.83431 -6.67202 35954 ft 481 kts 281°
2026-05-07 07:08 53.84821 -6.78299 35952 ft 481 kts 281°
2026-05-07 07:09 53.86193 -6.89336 35949 ft 480 kts 280°
2026-05-07 07:09 53.87563 -7.00444 35947 ft 480 kts 280°
2026-05-07 07:10 53.88922 -7.11555 35944 ft 480 kts 280°
2026-05-07 07:10 53.90258 -7.22567 35946 ft 479 kts 280°
2026-05-07 07:11 53.91594 -7.33674 35946 ft 479 kts 280°
2026-05-07 07:11 53.92918 -7.44770 35943 ft 479 kts 280°
2026-05-07 07:12 53.94223 -7.55801 35930 ft 478 kts 279°
2026-05-07 07:12 53.95523 -7.66881 35934 ft 478 kts 279°
2026-05-07 07:13 53.96805 -7.77903 35930 ft 478 kts 279°
2026-05-07 07:13 53.98085 -7.89002 35925 ft 477 kts 279°
2026-05-07 07:14 53.99353 -8.00086 35923 ft 477 kts 279°
2026-05-07 07:14 54.00608 -8.11156 35921 ft 476 kts 279°
2026-05-07 07:15 54.01846 -8.22167 35916 ft 476 kts 279°
2026-05-07 07:15 54.03080 -8.33240 35913 ft 476 kts 278°
2026-05-07 07:16 54.04301 -8.44302 35913 ft 475 kts 278°
2026-05-07 07:16 54.05506 -8.55319 35911 ft 475 kts 278°
2026-05-07 07:17 54.06706 -8.66381 35909 ft 474 kts 278°
2026-05-07 07:17 54.07888 -8.77376 35911 ft 474 kts 278°
2026-05-07 07:18 54.09067 -8.88438 35907 ft 473 kts 278°
2026-05-07 07:18 54.10227 -8.99432 35904 ft 473 kts 278°
2026-05-07 07:19 54.11383 -9.10485 35902 ft 473 kts 278°
2026-05-07 07:19 54.12527 -9.21530 35903 ft 472 kts 277°
2026-05-07 07:20 54.13653 -9.32499 35896 ft 472 kts 277°
2026-05-07 07:20 54.14778 -9.43569 35898 ft 472 kts 277°
2026-05-07 07:21 54.15882 -9.54529 35896 ft 471 kts 277°
2026-05-07 07:21 54.16982 -9.65563 35897 ft 471 kts 277°
2026-05-07 07:22 54.18074 -9.76617 35903 ft 470 kts 277°
2026-05-07 07:22 54.19147 -9.87586 35899 ft 470 kts 277°
2026-05-07 07:23 54.20215 -9.98623 35902 ft 470 kts 276°
2026-05-07 07:23 54.21268 -10.09595 35897 ft 469 kts 276°
2026-05-07 07:24 54.22139 -10.18768 35892 ft 469 kts 276°
2026-05-07 07:24 54.23176 -10.29783 35902 ft 468 kts 276°
2026-05-07 07:25 54.24705 -10.46231 35881 ft 468 kts 276°
2026-05-07 07:26 54.25713 -10.57223 35881 ft 467 kts 276°
2026-05-07 07:26 54.26713 -10.68235 35885 ft 467 kts 275°
2026-05-07 07:27 54.27695 -10.79171 35890 ft 467 kts 275°
2026-05-07 07:27 54.28672 -10.90170 35883 ft 466 kts 275°
2026-05-07 07:28 54.29633 -11.01101 35877 ft 466 kts 275°
2026-05-07 07:28 54.30588 -11.12091 35885 ft 466 kts 275°
2026-05-07 07:29 54.31533 -11.23084 35877 ft 466 kts 275°
2026-05-07 07:29 54.32463 -11.34009 35879 ft 465 kts 275°
2026-05-07 07:30 54.33387 -11.44992 35875 ft 465 kts 275°
2026-05-07 07:30 54.34297 -11.55946 35874 ft 465 kts 274°
2026-05-07 07:31 54.35199 -11.66917 35871 ft 464 kts 274°
2026-05-07 07:31 54.36091 -11.77901 35873 ft 464 kts 274°
2026-05-07 07:32 54.36968 -11.88836 35870 ft 464 kts 274°
2026-05-07 07:32 54.37839 -11.99816 35868 ft 464 kts 274°
2026-05-07 07:33 54.38693 -12.10729 35869 ft 463 kts 274°
2026-05-07 07:33 54.39541 -12.21701 35867 ft 463 kts 274°
2026-05-07 07:34 54.40379 -12.32679 35865 ft 463 kts 273°
2026-05-07 07:34 54.41195 -12.43655 35864 ft 462 kts 271°
2026-05-07 07:34 54.41066 -12.49034 35881 ft 455 kts 258°
2026-05-07 07:35 54.40488 -12.54365 35873 ft 454 kts 255°
2026-05-07 07:35 54.39065 -12.64939 35871 ft 453 kts 253°
2026-05-07 07:36 54.37524 -12.75377 35870 ft 453 kts 253°
2026-05-07 07:36 54.35933 -12.85788 35871 ft 453 kts 252°
2026-05-07 07:37 54.34307 -12.96237 35877 ft 452 kts 252°
2026-05-07 07:37 54.32662 -13.06670 35874 ft 452 kts 252°
2026-05-07 07:38 54.31006 -13.17071 35880 ft 452 kts 252°
2026-05-07 07:38 54.29348 -13.27397 35868 ft 452 kts 252°
2026-05-07 07:39 54.27668 -13.37781 35885 ft 452 kts 252°
2026-05-07 07:39 54.25979 -13.48143 35872 ft 452 kts 252°
2026-05-07 07:40 54.24288 -13.58445 35888 ft 452 kts 252°
2026-05-07 07:40 54.22578 -13.68803 35879 ft 452 kts 252°
2026-05-07 07:41 54.20858 -13.79150 35879 ft 452 kts 252°
2026-05-07 07:41 54.19142 -13.89410 35883 ft 452 kts 252°
2026-05-07 07:42 54.17402 -13.99747 35880 ft 452 kts 251°
2026-05-07 07:42 54.15665 -14.10007 35886 ft 452 kts 251°
2026-05-07 07:43 54.13909 -14.20314 35888 ft 452 kts 251°
2026-05-07 07:43 54.12146 -14.30605 35889 ft 451 kts 251°
2026-05-07 07:44 54.10386 -14.40815 35891 ft 452 kts 251°
2026-05-07 07:44 54.08604 -14.51096 35887 ft 452 kts 251°
2026-05-07 07:45 54.06809 -14.61393 35893 ft 452 kts 251°
2026-05-07 07:45 54.05023 -14.71589 35895 ft 452 kts 251°
2026-05-07 07:46 54.03212 -14.81864 35897 ft 452 kts 251°
2026-05-07 07:46 54.01395 -14.92123 35901 ft 452 kts 251°
2026-05-07 07:46 54.00736 -14.97280 35917 ft 454 kts 262°
2026-05-07 07:47 54.00574 -15.02682 35910 ft 457 kts 266°
2026-05-07 07:47 54.00571 -15.13506 35907 ft 457 kts 268°
2026-05-07 07:48 54.00685 -15.24280 35905 ft 457 kts 269°
2026-05-07 07:48 54.00833 -15.35041 35905 ft 457 kts 269°
2026-05-07 07:49 54.00990 -15.45857 35910 ft 456 kts 269°
2026-05-07 07:49 54.01146 -15.56588 35906 ft 456 kts 269°
2026-05-07 07:50 54.01299 -15.67424 35910 ft 456 kts 269°
2026-05-07 07:50 54.01445 -15.78162 35913 ft 456 kts 269°
2026-05-07 07:51 54.01585 -15.88953 35912 ft 456 kts 269°
2026-05-07 07:51 54.01717 -15.99667 35914 ft 455 kts 269°
2026-05-07 07:52 54.01841 -16.10456 35922 ft 455 kts 269°
2026-05-07 07:52 54.01956 -16.21184 35922 ft 455 kts 269°
2026-05-07 07:53 54.02063 -16.31999 35919 ft 455 kts 269°
2026-05-07 07:53 54.02160 -16.42723 35926 ft 455 kts 269°
2026-05-07 07:54 54.02249 -16.53509 35925 ft 456 kts 269°
2026-05-07 07:54 54.02328 -16.64304 35928 ft 456 kts 269°
2026-05-07 07:55 54.02397 -16.75042 35929 ft 456 kts 269°
2026-05-07 07:55 54.02458 -16.85870 35933 ft 457 kts 269°
2026-05-07 07:56 54.02508 -16.96612 35932 ft 457 kts 269°
2026-05-07 07:56 54.02550 -17.07442 35936 ft 457 kts 269°
2026-05-07 07:57 54.02581 -17.18271 35939 ft 457 kts 268°
2026-05-07 07:57 54.02604 -17.29060 35939 ft 458 kts 268°
2026-05-07 07:58 54.02616 -17.39912 35944 ft 458 kts 268°
2026-05-07 07:58 54.02620 -17.50784 35949 ft 459 kts 268°
2026-05-07 07:59 54.02613 -17.61609 35947 ft 459 kts 268°
2026-05-07 07:59 54.02596 -17.72514 35947 ft 460 kts 268°
2026-05-07 08:00 54.02571 -17.83340 35948 ft 460 kts 268°
2026-05-07 08:00 54.02535 -17.94268 35954 ft 461 kts 268°
2026-05-07 08:01 54.02489 -18.05120 35950 ft 461 kts 268°
2026-05-07 08:01 54.02433 -18.16044 35963 ft 461 kts 268°
2026-05-07 08:02 54.02368 -18.26963 35969 ft 462 kts 268°
2026-05-07 08:02 54.02292 -18.37897 35964 ft 462 kts 268°
2026-05-07 08:03 54.02208 -18.48775 35969 ft 462 kts 268°
2026-05-07 08:03 54.02111 -18.59724 35969 ft 463 kts 268°
2026-05-07 08:04 54.02005 -18.70684 35968 ft 463 kts 268°
2026-05-07 08:04 54.01890 -18.81561 35975 ft 463 kts 268°
2026-05-07 08:05 54.01764 -18.92548 35977 ft 463 kts 268°
2026-05-07 08:05 54.01630 -19.03455 35979 ft 463 kts 268°
2026-05-07 08:06 54.01484 -19.14450 35985 ft 464 kts 268°
2026-05-07 08:06 54.01328 -19.25430 35985 ft 464 kts 268°
2026-05-07 08:07 54.01164 -19.36349 35991 ft 464 kts 268°
2026-05-07 08:07 54.00988 -19.47335 35993 ft 464 kts 268°
2026-05-07 08:08 54.00802 -19.58317 35992 ft 464 kts 268°
2026-05-07 08:08 54.00607 -19.69229 35996 ft 464 kts 268°
2026-05-07 08:09 54.00400 -19.80248 36002 ft 465 kts 268°
2026-05-07 08:09 54.00184 -19.91181 35998 ft 465 kts 267°
2026-05-07 08:10 53.99793 -20.02160 36001 ft 465 kts 265°
2026-05-07 08:10 53.99323 -20.11276 36004 ft 465 kts 264°
2026-05-07 08:11 53.98709 -20.22229 36003 ft 465 kts 264°
2026-05-07 08:11 53.98072 -20.33174 36006 ft 465 kts 264°
2026-05-07 08:12 53.97425 -20.44045 36013 ft 465 kts 264°
2026-05-07 08:12 53.96761 -20.55012 36016 ft 465 kts 264°
2026-05-07 08:13 53.96092 -20.65863 36019 ft 465 kts 264°
2026-05-07 08:13 53.95410 -20.76773 36016 ft 465 kts 264°
2026-05-07 08:14 53.94715 -20.87711 36022 ft 464 kts 264°
2026-05-07 08:14 53.94016 -20.98569 36017 ft 464 kts 264°
2026-05-07 08:15 53.93303 -21.09478 36028 ft 464 kts 264°
2026-05-07 08:15 53.92579 -21.20397 36028 ft 464 kts 264°
2026-05-07 08:16 53.91848 -21.31278 36029 ft 464 kts 264°
2026-05-07 08:16 53.91110 -21.42094 36030 ft 464 kts 264°
2026-05-07 08:17 53.90357 -21.52997 36033 ft 464 kts 264°
2026-05-07 08:17 53.89594 -21.63889 36036 ft 464 kts 264°
2026-05-07 08:18 53.88827 -21.74706 36035 ft 464 kts 264°
2026-05-07 08:18 53.88045 -21.85575 36040 ft 464 kts 263°
2026-05-07 08:19 53.87254 -21.96446 36044 ft 464 kts 263°
2026-05-07 08:19 53.86455 -22.07270 36046 ft 464 kts 263°
2026-05-07 08:20 53.85643 -22.18152 36045 ft 465 kts 263°
2026-05-07 08:20 53.84819 -22.29039 36045 ft 465 kts 263°
2026-05-07 08:21 53.83991 -22.39851 36049 ft 465 kts 263°
2026-05-07 08:21 53.83147 -22.50737 36057 ft 465 kts 263°
2026-05-07 08:22 53.82298 -22.61558 36055 ft 465 kts 263°
2026-05-07 08:22 53.81433 -22.72454 36058 ft 466 kts 263°
2026-05-07 08:23 53.80565 -22.83264 36061 ft 466 kts 263°
2026-05-07 08:23 53.79682 -22.94137 36059 ft 466 kts 263°
2026-05-07 08:24 53.78787 -23.05022 36065 ft 466 kts 263°
2026-05-07 08:24 53.77884 -23.15885 36065 ft 467 kts 263°
2026-05-07 08:25 53.76974 -23.26710 36068 ft 467 kts 263°
2026-05-07 08:25 53.76051 -23.37575 36068 ft 467 kts 263°
2026-05-07 08:26 53.74650 -23.53840 36072 ft 467 kts 263°
2026-05-07 08:26 53.73698 -23.64727 36076 ft 468 kts 263°
2026-05-07 08:27 53.72737 -23.75612 36074 ft 468 kts 263°
2026-05-07 08:27 53.71773 -23.86420 36076 ft 468 kts 263°
2026-05-07 08:28 53.70789 -23.97332 36080 ft 468 kts 263°
2026-05-07 08:28 53.69797 -24.08211 36079 ft 469 kts 263°
2026-05-07 08:29 53.68801 -24.19036 36080 ft 469 kts 263°
2026-05-07 08:29 53.67794 -24.29863 36087 ft 469 kts 263°
2026-05-07 08:30 53.66770 -24.40760 36086 ft 469 kts 263°
2026-05-07 08:30 53.65735 -24.51653 36087 ft 470 kts 263°
2026-05-07 08:31 53.64698 -24.62473 36089 ft 470 kts 263°
2026-05-07 08:31 53.63642 -24.73367 36091 ft 470 kts 263°
2026-05-07 08:32 53.62583 -24.84194 36094 ft 470 kts 263°
2026-05-07 08:32 53.61509 -24.95072 36097 ft 470 kts 263°
2026-05-07 08:33 53.60423 -25.05968 36098 ft 470 kts 263°
2026-05-07 08:33 53.59334 -25.16780 36101 ft 470 kts 263°
2026-05-07 08:34 53.58233 -25.27607 36108 ft 471 kts 263°
2026-05-07 08:34 53.57117 -25.38489 36108 ft 471 kts 263°
2026-05-07 08:35 53.55992 -25.49354 36107 ft 471 kts 263°
2026-05-07 08:35 53.54863 -25.60148 36107 ft 471 kts 263°
2026-05-07 08:36 53.53720 -25.70994 36108 ft 471 kts 263°
2026-05-07 08:36 53.52564 -25.81852 36115 ft 471 kts 264°
2026-05-07 08:37 53.51409 -25.92608 36112 ft 471 kts 264°
2026-05-07 08:37 53.50233 -26.03451 36116 ft 471 kts 264°
2026-05-07 08:38 53.49050 -26.14277 36116 ft 471 kts 264°
2026-05-07 08:38 53.47862 -26.25054 36120 ft 471 kts 264°
2026-05-07 08:39 53.46659 -26.35865 36120 ft 471 kts 264°
2026-05-07 08:39 53.45454 -26.46607 36121 ft 470 kts 264°
2026-05-07 08:40 53.44231 -26.57417 36123 ft 470 kts 264°
2026-05-07 08:40 53.42998 -26.68216 36125 ft 470 kts 264°
2026-05-07 08:41 53.41759 -26.78979 36127 ft 470 kts 264°
2026-05-07 08:41 53.40515 -26.89698 36132 ft 470 kts 264°
2026-05-07 08:42 53.39256 -27.00452 36125 ft 470 kts 264°
2026-05-07 08:42 53.37992 -27.11167 36131 ft 470 kts 264°
2026-05-07 08:43 53.36712 -27.21930 36140 ft 470 kts 264°
2026-05-07 08:43 53.35430 -27.32616 36141 ft 469 kts 264°
2026-05-07 08:44 53.34135 -27.43329 36141 ft 469 kts 264°
2026-05-07 08:44 53.32837 -27.53983 36146 ft 469 kts 264°
2026-05-07 08:45 53.31519 -27.64721 36144 ft 469 kts 264°
2026-05-07 08:45 53.30203 -27.75354 36146 ft 469 kts 264°
2026-05-07 08:46 53.28874 -27.86003 36144 ft 468 kts 264°
2026-05-07 08:46 53.27535 -27.96664 36151 ft 468 kts 264°
2026-05-07 08:47 53.26185 -28.07339 36149 ft 469 kts 264°
2026-05-07 08:47 53.24826 -28.17991 36155 ft 468 kts 264°
2026-05-07 08:48 53.23462 -28.28596 36155 ft 468 kts 264°
2026-05-07 08:48 53.22081 -28.39257 36155 ft 468 kts 264°
2026-05-07 08:49 53.20700 -28.49839 36157 ft 468 kts 264°
2026-05-07 08:49 53.19303 -28.60473 36160 ft 468 kts 264°
2026-05-07 08:50 53.17906 -28.71030 36163 ft 468 kts 264°
2026-05-07 08:50 53.16490 -28.81645 36161 ft 468 kts 264°
2026-05-07 08:51 53.15077 -28.92167 36167 ft 468 kts 264°
2026-05-07 08:51 53.13643 -29.02764 36168 ft 468 kts 264°
2026-05-07 08:52 53.12212 -29.13263 36169 ft 467 kts 264°
2026-05-07 08:52 53.10760 -29.23843 36181 ft 467 kts 264°
2026-05-07 08:53 53.09299 -29.34411 36171 ft 467 kts 264°
2026-05-07 08:53 53.07840 -29.44897 36181 ft 468 kts 264°
2026-05-07 08:54 53.06361 -29.55443 36175 ft 468 kts 264°
2026-05-07 08:54 53.04872 -29.65997 36172 ft 468 kts 264°
2026-05-07 08:55 53.03380 -29.76493 36184 ft 468 kts 264°
2026-05-07 08:55 53.01878 -29.86989 36184 ft 468 kts 264°
2026-05-07 08:56 53.00666 -29.95769 36197 ft 465 kts 267°
2026-05-07 08:56 52.99781 -30.06398 36183 ft 462 kts 270°
2026-05-07 08:57 52.99078 -30.16996 36190 ft 461 kts 271°
2026-05-07 08:57 52.98410 -30.27607 36187 ft 462 kts 271°
2026-05-07 08:58 52.97750 -30.38164 36188 ft 462 kts 271°
2026-05-07 08:58 52.97082 -30.48788 36197 ft 462 kts 271°
2026-05-07 08:59 52.96410 -30.59348 36196 ft 462 kts 270°
2026-05-07 08:59 52.95725 -30.69974 36200 ft 462 kts 270°
2026-05-07 09:00 52.95038 -30.80514 36199 ft 462 kts 270°
2026-05-07 09:00 52.94337 -30.91125 36196 ft 463 kts 270°
2026-05-07 09:01 52.93624 -31.01760 36203 ft 462 kts 270°
2026-05-07 09:01 52.92909 -31.12307 36201 ft 463 kts 270°
2026-05-07 09:02 52.92179 -31.22941 36211 ft 463 kts 270°
2026-05-07 09:02 52.91440 -31.33556 36218 ft 463 kts 270°
2026-05-07 09:03 52.90696 -31.44115 36214 ft 463 kts 270°
2026-05-07 09:03 52.89937 -31.54744 36215 ft 463 kts 270°
2026-05-07 09:04 52.89173 -31.65295 36215 ft 463 kts 270°
2026-05-07 09:04 52.88396 -31.75912 36213 ft 464 kts 270°
2026-05-07 09:05 52.87615 -31.86442 36221 ft 464 kts 269°
2026-05-07 09:05 52.86817 -31.97074 36214 ft 464 kts 269°
2026-05-07 09:06 52.86017 -32.07604 36218 ft 463 kts 269°
2026-05-07 09:06 52.85201 -32.18209 36224 ft 464 kts 269°
2026-05-07 09:07 52.84377 -32.28793 36221 ft 463 kts 269°
2026-05-07 09:07 52.83544 -32.39382 36226 ft 464 kts 269°
2026-05-07 09:08 52.82706 -32.49909 36226 ft 463 kts 269°
2026-05-07 09:08 52.81853 -32.60504 36228 ft 464 kts 269°
2026-05-07 09:09 52.80998 -32.71005 36226 ft 464 kts 269°
2026-05-07 09:09 52.80125 -32.81600 36224 ft 464 kts 269°
2026-05-07 09:10 52.79251 -32.92102 36227 ft 464 kts 269°
2026-05-07 09:10 52.78360 -33.02678 36229 ft 464 kts 269°
2026-05-07 09:11 52.77460 -33.13260 36226 ft 464 kts 269°
2026-05-07 09:11 52.76559 -33.23748 36230 ft 464 kts 268°
2026-05-07 09:12 52.75640 -33.34323 36233 ft 464 kts 268°
2026-05-07 09:12 52.74712 -33.44900 36233 ft 465 kts 268°
2026-05-07 09:13 52.73780 -33.55393 36235 ft 465 kts 268°
2026-05-07 09:13 52.72832 -33.65966 36234 ft 465 kts 268°
2026-05-07 09:14 52.71874 -33.76535 36238 ft 465 kts 268°
2026-05-07 09:14 52.70912 -33.87038 36239 ft 466 kts 268°
2026-05-07 09:15 52.69932 -33.97634 36253 ft 466 kts 268°
2026-05-07 09:15 52.68950 -34.08144 36256 ft 466 kts 268°
2026-05-07 09:16 52.67952 -34.18716 36241 ft 467 kts 267°
2026-05-07 09:16 52.66943 -34.29300 36247 ft 467 kts 267°
2026-05-07 09:17 52.65930 -34.39827 36247 ft 467 kts 267°
2026-05-07 09:17 52.64901 -34.50415 36248 ft 467 kts 267°
2026-05-07 09:18 52.63862 -34.60997 36249 ft 468 kts 267°
2026-05-07 09:18 52.62819 -34.71514 36257 ft 468 kts 267°
2026-05-07 09:19 52.61759 -34.82110 36252 ft 468 kts 267°
2026-05-07 09:19 52.60696 -34.92641 36260 ft 468 kts 267°
2026-05-07 09:20 52.59616 -35.03233 36261 ft 468 kts 267°
2026-05-07 09:20 52.58533 -35.13759 36260 ft 468 kts 266°
2026-05-07 09:21 52.57435 -35.24332 36255 ft 468 kts 266°
2026-05-07 09:21 52.56333 -35.34846 36262 ft 468 kts 266°
2026-05-07 09:22 52.55213 -35.45442 36265 ft 468 kts 266°
2026-05-07 09:22 52.54094 -35.55932 36273 ft 468 kts 266°
2026-05-07 09:23 52.52956 -35.66505 36272 ft 468 kts 266°
2026-05-07 09:23 52.51822 -35.76960 36265 ft 467 kts 266°
2026-05-07 09:24 52.50670 -35.87489 36267 ft 467 kts 266°
2026-05-07 09:24 52.49518 -35.97920 36267 ft 467 kts 266°
2026-05-07 09:25 52.48350 -36.08416 36270 ft 466 kts 266°
2026-05-07 09:25 52.47174 -36.18890 36273 ft 466 kts 266°
2026-05-07 09:26 52.45995 -36.29309 36272 ft 466 kts 266°
2026-05-07 09:26 52.44801 -36.39775 36272 ft 465 kts 266°
2026-05-07 09:27 52.43600 -36.50211 36275 ft 465 kts 266°
2026-05-07 09:28 52.41790 -36.65786 36276 ft 465 kts 266°
2026-05-07 09:28 52.40566 -36.76215 36277 ft 465 kts 266°
2026-05-07 09:29 52.39341 -36.86568 36276 ft 465 kts 266°
2026-05-07 09:29 52.38100 -36.96976 36276 ft 465 kts 266°
2026-05-07 09:30 52.36856 -37.07322 36274 ft 466 kts 265°
2026-05-07 09:30 52.35596 -37.17722 36280 ft 466 kts 265°
2026-05-07 09:31 52.34325 -37.28135 36275 ft 466 kts 265°
2026-05-07 09:31 52.33052 -37.38484 36274 ft 466 kts 265°
2026-05-07 09:32 52.31762 -37.48884 36278 ft 466 kts 265°
2026-05-07 09:32 52.30468 -37.59238 36272 ft 467 kts 265°
2026-05-07 09:33 52.29156 -37.69660 36277 ft 467 kts 265°
2026-05-07 09:33 52.27845 -37.79995 36265 ft 467 kts 265°
2026-05-07 09:34 52.26515 -37.90408 36273 ft 467 kts 265°
2026-05-07 09:34 52.25178 -38.00802 36275 ft 467 kts 265°
2026-05-07 09:35 52.23841 -38.11115 36268 ft 467 kts 265°
2026-05-07 09:35 52.22484 -38.21503 36276 ft 467 kts 264°
2026-05-07 09:36 52.21117 -38.31896 36273 ft 467 kts 264°
2026-05-07 09:36 52.19749 -38.42214 36274 ft 467 kts 264°
2026-05-07 09:37 52.18366 -38.52575 36273 ft 467 kts 264°
2026-05-07 09:37 52.16982 -38.62871 36275 ft 467 kts 264°
2026-05-07 09:38 52.15580 -38.73226 36275 ft 467 kts 264°
2026-05-07 09:38 52.14167 -38.83586 36274 ft 467 kts 264°
2026-05-07 09:39 52.12755 -38.93865 36276 ft 467 kts 264°
2026-05-07 09:39 52.11327 -39.04190 36272 ft 467 kts 263°
2026-05-07 09:40 52.09887 -39.14528 36276 ft 468 kts 263°
2026-05-07 09:40 52.08447 -39.24800 36278 ft 468 kts 263°
2026-05-07 09:41 52.06988 -39.35132 36270 ft 468 kts 263°
2026-05-07 09:41 52.05519 -39.45460 36274 ft 468 kts 263°
2026-05-07 09:42 52.04049 -39.55726 36275 ft 468 kts 263°
2026-05-07 09:42 52.02561 -39.66053 36273 ft 469 kts 263°
2026-05-07 09:43 52.01074 -39.76305 36275 ft 469 kts 263°
2026-05-07 09:43 51.99568 -39.86611 36275 ft 469 kts 263°
2026-05-07 09:44 51.98306 -39.95199 36273 ft 469 kts 262°
2026-05-07 09:44 51.96787 -40.05479 36275 ft 470 kts 262°
2026-05-07 09:45 51.95251 -40.15801 36276 ft 470 kts 262°
2026-05-07 09:45 51.93717 -40.26042 36265 ft 469 kts 262°
2026-05-07 09:46 51.92163 -40.36353 36267 ft 469 kts 262°
2026-05-07 09:46 51.90606 -40.46620 36264 ft 469 kts 262°
2026-05-07 09:47 51.89045 -40.56844 36269 ft 469 kts 262°
2026-05-07 09:47 51.87471 -40.67082 36265 ft 468 kts 261°
2026-05-07 09:48 51.85898 -40.77258 36260 ft 468 kts 261°
2026-05-07 09:48 51.84308 -40.87480 36263 ft 468 kts 261°
2026-05-07 09:49 51.82719 -40.97631 36255 ft 468 kts 261°
2026-05-07 09:49 51.81115 -41.07819 36253 ft 467 kts 261°
2026-05-07 09:50 51.79499 -41.18008 36252 ft 467 kts 261°
2026-05-07 09:50 51.77879 -41.28164 36246 ft 467 kts 261°
2026-05-07 09:51 51.76256 -41.38277 36243 ft 467 kts 260°
2026-05-07 09:51 51.74614 -41.48447 36248 ft 467 kts 260°
2026-05-07 09:52 51.72964 -41.58603 36242 ft 467 kts 260°
2026-05-07 09:52 51.71307 -41.68740 36236 ft 467 kts 260°
2026-05-07 09:53 51.69640 -41.78875 36238 ft 467 kts 259°
2026-05-07 09:53 51.67971 -41.88970 36235 ft 468 kts 259°
2026-05-07 09:54 51.66285 -41.99098 36236 ft 468 kts 259°
2026-05-07 09:54 51.64598 -42.09172 36233 ft 468 kts 259°
2026-05-07 09:55 51.62892 -42.19306 36230 ft 468 kts 259°
2026-05-07 09:55 51.61176 -42.29443 36232 ft 468 kts 259°
2026-05-07 09:56 51.59464 -42.39489 36231 ft 468 kts 259°
2026-05-07 09:56 51.57734 -42.49589 36227 ft 468 kts 259°
2026-05-07 09:57 51.56003 -42.59636 36230 ft 468 kts 258°
2026-05-07 09:57 51.54253 -42.69731 36225 ft 468 kts 258°
2026-05-07 09:58 51.52498 -42.79803 36225 ft 468 kts 258°
2026-05-07 09:58 51.50743 -42.89808 36224 ft 468 kts 258°
2026-05-07 09:59 51.48965 -42.99892 36225 ft 468 kts 258°
2026-05-07 09:59 51.47179 -43.09968 36218 ft 468 kts 258°
2026-05-07 10:00 51.45397 -43.19965 36223 ft 468 kts 258°
2026-05-07 10:00 51.43603 -43.29970 36217 ft 468 kts 258°
2026-05-07 10:01 51.41792 -43.40019 36223 ft 468 kts 257°
2026-05-07 10:01 51.39984 -43.49984 36218 ft 468 kts 257°
2026-05-07 10:02 51.38158 -43.60005 36234 ft 468 kts 257°
2026-05-07 10:02 51.36317 -43.70052 36228 ft 468 kts 257°
2026-05-07 10:03 51.34482 -43.80009 36232 ft 468 kts 257°
2026-05-07 10:03 51.32643 -43.89937 36219 ft 468 kts 257°
2026-05-07 10:04 51.30783 -43.99921 36234 ft 468 kts 257°
2026-05-07 10:04 51.28917 -44.09886 36229 ft 467 kts 257°
2026-05-07 10:05 51.27040 -44.19857 36238 ft 467 kts 257°
2026-05-07 10:05 51.25170 -44.29733 36217 ft 467 kts 257°
2026-05-07 10:06 51.23282 -44.39657 36238 ft 467 kts 256°
2026-05-07 10:06 51.21385 -44.49570 36215 ft 466 kts 256°
2026-05-07 10:07 51.19489 -44.59435 36238 ft 466 kts 256°
2026-05-07 10:07 51.17587 -44.69272 36215 ft 466 kts 256°
2026-05-07 10:08 51.15668 -44.79156 36235 ft 466 kts 256°
2026-05-07 10:08 51.13743 -44.89011 36215 ft 466 kts 256°
2026-05-07 10:09 51.11821 -44.98800 36223 ft 465 kts 256°
2026-05-07 10:09 51.09878 -45.08646 36224 ft 465 kts 256°
2026-05-07 10:10 51.07942 -45.18413 36224 ft 465 kts 256°
2026-05-07 10:10 51.05984 -45.28237 36219 ft 465 kts 256°
2026-05-07 10:11 51.04019 -45.38048 36224 ft 465 kts 256°
2026-05-07 10:11 51.02056 -45.47796 36216 ft 465 kts 256°
2026-05-07 10:12 51.00076 -45.57582 36224 ft 464 kts 256°
2026-05-07 10:12 50.98100 -45.67302 36216 ft 464 kts 256°
2026-05-07 10:13 50.96107 -45.77058 36224 ft 464 kts 255°
2026-05-07 10:13 50.94118 -45.86743 36217 ft 464 kts 255°
2026-05-07 10:14 50.92110 -45.96479 36226 ft 464 kts 255°
2026-05-07 10:14 50.90092 -46.06208 36215 ft 463 kts 255°
2026-05-07 10:15 50.88080 -46.15867 36227 ft 463 kts 255°
2026-05-07 10:15 50.86050 -46.25565 36220 ft 463 kts 255°
2026-05-07 10:16 50.84025 -46.35197 36230 ft 463 kts 255°
2026-05-07 10:16 50.81981 -46.44870 36218 ft 463 kts 255°
2026-05-07 10:17 50.79928 -46.54543 36230 ft 463 kts 255°
2026-05-07 10:17 50.77882 -46.64131 36217 ft 463 kts 255°
2026-05-07 10:18 50.75814 -46.73782 36228 ft 462 kts 255°
2026-05-07 10:18 50.73753 -46.83353 36220 ft 462 kts 255°
2026-05-07 10:19 50.71670 -46.92981 36229 ft 462 kts 254°
2026-05-07 10:19 50.69596 -47.02523 36222 ft 462 kts 254°
2026-05-07 10:20 50.67500 -47.12120 36231 ft 462 kts 254°
2026-05-07 10:20 50.65398 -47.21698 36220 ft 461 kts 254°
2026-05-07 10:21 50.63291 -47.31257 36228 ft 461 kts 254°
2026-05-07 10:21 50.61183 -47.40773 36218 ft 461 kts 254°
2026-05-07 10:22 50.59074 -47.50254 36233 ft 461 kts 254°
2026-05-07 10:22 50.56942 -47.59790 36223 ft 461 kts 254°
2026-05-07 10:23 50.54806 -47.69309 36232 ft 460 kts 253°
2026-05-07 10:23 50.52680 -47.78732 36225 ft 460 kts 253°
2026-05-07 10:24 50.50535 -47.88203 36232 ft 460 kts 253°
2026-05-07 10:24 50.48373 -47.97702 36221 ft 459 kts 253°
2026-05-07 10:25 50.46227 -48.07093 36230 ft 459 kts 253°
2026-05-07 10:25 50.44061 -48.16526 36224 ft 459 kts 253°
2026-05-07 10:26 50.41889 -48.25946 36229 ft 458 kts 253°
2026-05-07 10:26 50.39727 -48.35278 36224 ft 458 kts 253°
2026-05-07 10:27 50.37542 -48.44675 36225 ft 457 kts 253°
2026-05-07 10:27 50.35358 -48.54021 36224 ft 457 kts 253°
2026-05-07 10:28 50.33171 -48.63339 36225 ft 456 kts 253°
2026-05-07 10:28 50.30977 -48.72647 36223 ft 456 kts 253°
2026-05-07 10:29 50.28786 -48.81904 36227 ft 456 kts 252°
2026-05-07 10:29 50.26576 -48.91204 36220 ft 455 kts 252°
2026-05-07 10:30 50.23624 -49.03565 36219 ft 455 kts 252°
2026-05-07 10:30 50.21039 -49.14329 36216 ft 455 kts 252°
2026-05-07 10:31 50.19180 -49.22036 36219 ft 454 kts 252°
2026-05-07 10:31 50.16939 -49.31288 36215 ft 454 kts 252°
2026-05-07 10:32 50.14712 -49.40448 36217 ft 454 kts 252°
2026-05-07 10:32 50.12462 -49.49663 36215 ft 454 kts 252°
2026-05-07 10:33 50.10219 -49.58811 36216 ft 454 kts 252°
2026-05-07 10:33 50.07953 -49.68013 36214 ft 453 kts 252°
2026-05-07 10:34 50.05687 -49.77178 36213 ft 453 kts 251°
2026-05-07 10:34 50.03422 -49.86298 36215 ft 453 kts 251°
2026-05-07 10:35 50.01137 -49.95473 36210 ft 453 kts 252°
2026-05-07 10:35 49.98916 -50.04600 36211 ft 453 kts 252°
2026-05-07 10:36 49.96705 -50.13773 36212 ft 453 kts 252°
2026-05-07 10:36 49.94509 -50.22883 36208 ft 452 kts 252°
2026-05-07 10:37 49.92295 -50.32038 36209 ft 452 kts 252°
2026-05-07 10:37 49.90073 -50.41189 36208 ft 452 kts 252°
2026-05-07 10:38 49.87860 -50.50268 36205 ft 452 kts 252°
2026-05-07 10:38 49.85626 -50.59392 36207 ft 451 kts 251°
2026-05-07 10:39 49.83404 -50.68431 36206 ft 451 kts 251°
2026-05-07 10:39 49.81158 -50.77526 36206 ft 451 kts 251°
2026-05-07 10:40 49.78911 -50.86586 36203 ft 450 kts 251°
2026-05-07 10:40 49.77800 -50.91058 36029 ft 450 kts 250°
2026-05-07 10:40 49.76696 -50.95623 36127 ft 451 kts 249°
2026-05-07 10:41 49.74441 -51.04721 36188 ft 452 kts 249°
2026-05-07 10:41 49.72175 -51.13724 36197 ft 451 kts 248°
2026-05-07 10:42 49.69884 -51.22774 36199 ft 451 kts 248°
2026-05-07 10:42 49.67607 -51.31744 36202 ft 450 kts 248°
2026-05-07 10:43 49.65314 -51.40746 36198 ft 450 kts 248°
2026-05-07 10:43 49.63015 -51.49743 36199 ft 449 kts 248°
2026-05-07 10:44 49.60729 -51.58656 36392 ft 449 kts 248°
2026-05-07 10:44 49.58383 -51.67540 36231 ft 445 kts 250°
2026-05-07 10:45 49.56101 -51.76375 36208 ft 444 kts 251°
2026-05-07 10:45 49.53823 -51.85236 36199 ft 444 kts 251°
2026-05-07 10:46 49.51540 -51.94073 36197 ft 444 kts 250°
2026-05-07 10:46 49.49128 -52.02773 36193 ft 444 kts 249°
2026-05-07 10:47 49.46612 -52.11452 36193 ft 443 kts 248°
2026-05-07 10:47 49.44084 -52.20052 36195 ft 443 kts 248°
2026-05-07 10:48 49.41529 -52.28695 36195 ft 443 kts 248°
2026-05-07 10:48 49.38986 -52.37261 36192 ft 443 kts 248°
2026-05-07 10:49 49.36418 -52.45877 36190 ft 442 kts 248°
2026-05-07 10:49 49.33864 -52.54416 36191 ft 442 kts 248°
2026-05-07 10:50 49.31294 -52.62979 36188 ft 441 kts 248°
2026-05-07 10:50 49.28714 -52.71545 36185 ft 441 kts 248°
2026-05-07 10:51 49.26153 -52.80016 36185 ft 441 kts 248°
2026-05-07 10:51 49.23569 -52.88537 36179 ft 440 kts 248°
2026-05-07 10:52 49.20992 -52.97004 36183 ft 440 kts 248°
2026-05-07 10:52 49.18397 -53.05497 36179 ft 439 kts 247°
2026-05-07 10:53 49.15805 -53.13958 36180 ft 439 kts 247°
2026-05-07 10:53 49.13225 -53.22347 36175 ft 438 kts 247°
2026-05-07 10:54 49.10626 -53.30773 36175 ft 438 kts 247°
2026-05-07 10:54 49.08021 -53.39186 36167 ft 437 kts 247°
2026-05-07 10:55 49.05430 -53.47524 36165 ft 437 kts 247°
2026-05-07 10:55 49.02815 -53.55911 36165 ft 437 kts 247°
2026-05-07 10:56 49.00206 -53.64250 36161 ft 437 kts 247°
2026-05-07 10:56 48.97578 -53.72623 36156 ft 437 kts 246°
2026-05-07 10:57 48.94963 -53.80924 36154 ft 437 kts 246°
2026-05-07 10:57 48.92321 -53.89285 36150 ft 437 kts 246°
2026-05-07 10:58 48.89694 -53.97570 36152 ft 437 kts 246°
2026-05-07 10:58 48.87046 -54.05898 36147 ft 437 kts 246°
2026-05-07 10:59 48.84391 -54.14218 36138 ft 437 kts 246°
2026-05-07 10:59 48.81749 -54.22472 36136 ft 436 kts 246°
2026-05-07 11:00 48.79089 -54.30751 36132 ft 436 kts 246°
2026-05-07 11:00 48.76418 -54.39039 36128 ft 436 kts 246°
2026-05-07 11:01 48.73765 -54.47251 36126 ft 436 kts 246°
2026-05-07 11:01 48.71078 -54.55531 36133 ft 437 kts 246°
2026-05-07 11:02 48.68404 -54.63751 36130 ft 438 kts 245°
2026-05-07 11:02 48.65708 -54.72014 36127 ft 438 kts 245°
2026-05-07 11:03 48.63001 -54.80283 36126 ft 438 kts 245°
2026-05-07 11:03 48.60301 -54.88502 36118 ft 439 kts 245°
2026-05-07 11:04 48.57573 -54.96779 36119 ft 439 kts 245°
2026-05-07 11:04 48.54842 -55.05039 36117 ft 439 kts 245°
2026-05-07 11:05 48.52124 -55.13236 36110 ft 439 kts 244°
2026-05-07 11:05 48.49381 -55.21478 36105 ft 439 kts 244°
2026-05-07 11:06 48.46648 -55.29663 36104 ft 439 kts 244°
2026-05-07 11:06 48.43892 -55.37888 36101 ft 439 kts 244°
2026-05-07 11:07 48.41128 -55.46113 36100 ft 439 kts 244°
2026-05-07 11:07 48.38368 -55.54296 36096 ft 439 kts 244°
2026-05-07 11:08 48.35594 -55.62499 36091 ft 439 kts 243°
2026-05-07 11:08 48.32829 -55.70643 36089 ft 440 kts 243°
2026-05-07 11:09 48.30039 -55.78840 36091 ft 440 kts 243°
2026-05-07 11:09 48.27245 -55.87018 36079 ft 440 kts 243°
2026-05-07 11:10 48.24440 -55.95205 36084 ft 440 kts 243°
2026-05-07 11:10 48.21645 -56.03333 36081 ft 440 kts 243°
2026-05-07 11:11 48.18820 -56.11527 36079 ft 441 kts 243°
2026-05-07 11:11 48.16013 -56.19640 36072 ft 441 kts 242°
2026-05-07 11:12 48.13177 -56.27815 36073 ft 441 kts 242°
2026-05-07 11:12 48.10350 -56.35934 36073 ft 442 kts 242°
2026-05-07 11:13 48.07495 -56.44114 36070 ft 442 kts 242°
2026-05-07 11:13 48.04638 -56.52269 36077 ft 442 kts 242°
2026-05-07 11:14 48.01791 -56.60373 36079 ft 442 kts 242°
2026-05-07 11:14 47.98922 -56.68514 36088 ft 443 kts 242°
2026-05-07 11:15 47.96044 -56.76653 36095 ft 443 kts 241°
2026-05-07 11:15 47.93180 -56.84726 36100 ft 443 kts 241°
2026-05-07 11:16 47.90284 -56.92864 36109 ft 443 kts 241°
2026-05-07 11:16 47.87404 -57.00933 36113 ft 443 kts 241°
2026-05-07 11:17 47.84496 -57.09054 36121 ft 443 kts 241°
2026-05-07 11:17 47.81586 -57.17154 36118 ft 444 kts 241°
2026-05-07 11:18 47.78680 -57.25220 36114 ft 444 kts 240°
2026-05-07 11:18 47.75747 -57.33332 36113 ft 444 kts 240°
2026-05-07 11:19 47.73313 -57.40048 36109 ft 444 kts 240°
2026-05-07 11:19 47.69897 -57.49445 36109 ft 444 kts 240°
2026-05-07 11:20 47.67451 -57.56154 36107 ft 444 kts 240°
2026-05-07 11:20 47.64493 -57.64245 36101 ft 444 kts 240°
2026-05-07 11:21 47.61552 -57.72262 36098 ft 444 kts 240°
2026-05-07 11:21 47.58584 -57.80329 36090 ft 444 kts 240°
2026-05-07 11:22 47.55638 -57.88316 36086 ft 444 kts 240°
2026-05-07 11:22 47.52666 -57.96343 36072 ft 444 kts 240°
2026-05-07 11:23 47.49709 -58.04309 36077 ft 443 kts 240°
2026-05-07 11:23 47.46722 -58.12330 36061 ft 443 kts 240°
2026-05-07 11:24 47.43740 -58.20317 36059 ft 443 kts 240°
2026-05-07 11:24 47.40772 -58.28241 36050 ft 443 kts 240°
2026-05-07 11:25 47.37781 -58.36202 36047 ft 443 kts 240°
2026-05-07 11:25 47.34804 -58.44105 36039 ft 442 kts 240°
2026-05-07 11:26 47.31798 -58.52063 36036 ft 442 kts 240°
2026-05-07 11:26 47.28801 -58.59972 36031 ft 442 kts 240°
2026-05-07 11:27 47.25809 -58.67847 36026 ft 441 kts 239°
2026-05-07 11:27 47.22816 -58.75699 36020 ft 441 kts 239°
2026-05-07 11:28 47.19801 -58.83588 36019 ft 441 kts 239°
2026-05-07 11:28 47.16798 -58.91419 36012 ft 440 kts 239°
2026-05-07 11:29 47.13783 -58.99258 36005 ft 440 kts 239°
2026-05-07 11:29 47.10785 -59.07031 36006 ft 439 kts 239°
2026-05-07 11:30 47.07764 -59.14838 35999 ft 439 kts 239°
2026-05-07 11:30 47.04741 -59.22631 35998 ft 439 kts 239°
2026-05-07 11:31 47.03253 -59.26484 36013 ft 428 kts 238°
2026-05-07 11:31 47.01787 -59.30277 35996 ft 425 kts 238°
2026-05-07 11:31 46.98867 -59.37767 35991 ft 427 kts 238°
2026-05-07 11:32 46.94423 -59.49101 35980 ft 426 kts 238°
2026-05-07 11:33 46.91478 -59.56586 35962 ft 426 kts 238°
2026-05-07 11:33 46.88517 -59.64097 35972 ft 425 kts 238°
2026-05-07 11:34 46.85556 -59.71592 35955 ft 425 kts 238°
2026-05-07 11:34 46.82594 -59.79070 35948 ft 424 kts 238°
2026-05-07 11:35 46.79641 -59.86506 35943 ft 424 kts 238°
2026-05-07 11:35 46.76690 -59.93916 35935 ft 424 kts 238°
2026-05-07 11:36 46.73720 -60.01354 35930 ft 423 kts 238°
2026-05-07 11:36 46.70746 -60.08779 35924 ft 423 kts 238°
2026-05-07 11:37 46.67765 -60.16200 35922 ft 424 kts 238°
2026-05-07 11:37 46.64794 -60.23575 35917 ft 424 kts 238°
2026-05-07 11:38 46.61795 -60.31000 35910 ft 425 kts 238°
2026-05-07 11:38 46.58806 -60.38379 35909 ft 425 kts 238°
2026-05-07 11:39 46.55789 -60.45806 35899 ft 425 kts 238°
2026-05-07 11:39 46.52788 -60.53173 35895 ft 425 kts 238°
2026-05-07 11:40 46.49770 -60.60563 35886 ft 425 kts 238°
2026-05-07 11:40 46.46761 -60.67914 35876 ft 424 kts 238°
2026-05-07 11:41 46.43737 -60.75278 35867 ft 424 kts 238°
2026-05-07 11:41 46.40730 -60.82586 35864 ft 423 kts 238°
2026-05-07 11:42 46.37703 -60.89922 35852 ft 422 kts 238°
2026-05-07 11:42 46.34680 -60.97230 35850 ft 422 kts 238°
2026-05-07 11:43 46.31671 -61.04488 35837 ft 421 kts 238°
2026-05-07 11:43 46.28655 -61.11741 35837 ft 420 kts 239°
2026-05-07 11:44 46.25654 -61.18938 35843 ft 420 kts 239°
2026-05-07 11:44 46.22625 -61.26187 35852 ft 419 kts 239°
2026-05-07 11:45 46.19616 -61.33362 35832 ft 419 kts 239°
2026-05-07 11:45 46.16590 -61.40567 35824 ft 419 kts 239°
2026-05-07 11:46 46.13579 -61.47716 35826 ft 418 kts 239°
2026-05-07 11:46 46.10547 -61.54898 35817 ft 418 kts 239°
2026-05-07 11:47 46.07534 -61.62019 35818 ft 417 kts 239°
2026-05-07 11:47 46.04507 -61.69152 35816 ft 416 kts 239°
2026-05-07 11:48 46.01497 -61.76228 35817 ft 416 kts 239°
2026-05-07 11:48 45.98466 -61.83331 35815 ft 415 kts 239°
2026-05-07 11:49 45.95438 -61.90412 35814 ft 415 kts 239°
2026-05-07 11:49 45.92424 -61.97439 35812 ft 414 kts 239°
2026-05-07 11:50 45.89388 -62.04502 35804 ft 413 kts 239°
2026-05-07 11:50 45.86386 -62.11470 35799 ft 413 kts 239°
2026-05-07 11:51 45.83363 -62.18467 35794 ft 412 kts 239°
2026-05-07 11:51 45.80334 -62.25462 35790 ft 411 kts 240°
2026-05-07 11:52 45.77332 -62.32378 35784 ft 410 kts 240°
2026-05-07 11:52 45.74312 -62.39317 35780 ft 409 kts 240°
2026-05-07 11:53 45.71321 -62.46171 35780 ft 407 kts 240°
2026-05-07 11:53 45.68310 -62.53057 35777 ft 406 kts 240°
2026-05-07 11:54 45.65305 -62.59915 35770 ft 405 kts 240°
2026-05-07 11:54 45.62318 -62.66707 35789 ft 405 kts 240°
2026-05-07 11:55 45.59321 -62.73509 35790 ft 404 kts 240°
2026-05-07 11:55 45.56325 -62.80291 35772 ft 403 kts 240°
2026-05-07 11:56 45.53348 -62.87018 35777 ft 402 kts 240°
2026-05-07 11:56 45.50359 -62.93760 35772 ft 401 kts 240°
2026-05-07 11:57 45.47388 -63.00438 35771 ft 400 kts 240°
2026-05-07 11:57 45.44402 -63.07136 35775 ft 399 kts 240°
2026-05-07 11:58 45.41443 -63.13761 35775 ft 398 kts 240°
2026-05-07 11:58 45.38463 -63.20412 35771 ft 397 kts 240°
2026-05-07 11:59 45.35494 -63.27025 35770 ft 396 kts 240°
2026-05-07 11:59 45.32549 -63.33572 35779 ft 395 kts 240°
2026-05-07 12:00 45.29579 -63.40162 35777 ft 395 kts 240°
2026-05-07 12:00 45.26608 -63.46739 35780 ft 395 kts 240°
2026-05-07 12:01 45.23657 -63.53252 35774 ft 394 kts 240°
2026-05-07 12:01 45.20681 -63.59804 35780 ft 393 kts 240°
2026-05-07 12:02 45.17735 -63.66279 35784 ft 393 kts 240°
2026-05-07 12:02 45.14764 -63.72791 35773 ft 393 kts 240°
2026-05-07 12:03 45.11804 -63.79264 35774 ft 392 kts 240°
2026-05-07 12:03 45.08832 -63.85750 35765 ft 392 kts 240°
2026-05-07 12:04 45.05859 -63.92222 35761 ft 391 kts 240°
2026-05-07 12:04 45.02907 -63.98636 35755 ft 390 kts 240°
2026-05-07 12:05 44.99939 -64.05069 35748 ft 389 kts 240°
2026-05-07 12:05 44.96991 -64.11440 35745 ft 388 kts 240°
2026-05-07 12:06 44.94529 -64.16751 35746 ft 388 kts 240°
2026-05-07 12:06 44.91564 -64.23136 35739 ft 388 kts 240°
2026-05-07 12:07 44.88601 -64.29503 35740 ft 387 kts 240°
2026-05-07 12:07 44.85666 -64.35795 35737 ft 386 kts 240°
2026-05-07 12:08 44.82703 -64.42135 35737 ft 386 kts 240°
2026-05-07 12:08 44.79764 -64.48411 35741 ft 385 kts 240°
2026-05-07 12:09 44.76805 -64.54713 35742 ft 384 kts 240°
2026-05-07 12:09 44.73866 -64.60958 35751 ft 384 kts 240°
2026-05-07 12:10 44.70908 -64.67230 35750 ft 383 kts 240°
2026-05-07 12:10 44.67972 -64.73445 35745 ft 383 kts 240°
2026-05-07 12:11 44.65011 -64.79696 35747 ft 383 kts 240°
2026-05-07 12:11 44.62074 -64.85884 35745 ft 382 kts 240°
2026-05-07 12:12 44.59115 -64.92104 35750 ft 382 kts 240°
2026-05-07 12:12 44.56157 -64.98310 35752 ft 382 kts 240°
2026-05-07 12:13 44.53216 -65.04466 35765 ft 381 kts 240°
2026-05-07 12:13 44.50274 -65.10611 35761 ft 381 kts 240°
2026-05-07 12:14 44.47314 -65.16782 35766 ft 380 kts 240°
2026-05-07 12:14 44.44376 -65.22892 35763 ft 379 kts 240°
2026-05-07 12:15 44.41421 -65.29027 35770 ft 379 kts 240°
2026-05-07 12:15 44.38488 -65.35100 35769 ft 378 kts 240°
2026-05-07 12:16 44.35536 -65.41201 35770 ft 378 kts 240°
2026-05-07 12:16 44.32584 -65.47289 35766 ft 377 kts 240°
2026-05-07 12:17 44.29639 -65.53349 35767 ft 376 kts 240°
2026-05-07 12:17 44.26705 -65.59374 35774 ft 376 kts 240°
2026-05-07 12:18 44.23780 -65.65373 35773 ft 375 kts 240°
2026-05-07 12:18 44.20841 -65.71388 35774 ft 375 kts 240°
2026-05-07 12:19 44.17894 -65.77402 35774 ft 374 kts 240°
2026-05-07 12:19 44.14967 -65.83366 35769 ft 374 kts 240°
2026-05-07 12:20 44.12029 -65.89339 35771 ft 373 kts 240°
2026-05-07 12:20 44.09105 -65.95267 35767 ft 373 kts 240°
2026-05-07 12:21 44.06163 -66.01219 35771 ft 373 kts 240°
2026-05-07 12:21 44.03218 -66.07167 35778 ft 372 kts 240°
2026-05-07 12:22 44.00294 -66.13065 35777 ft 372 kts 240°
2026-05-07 12:22 43.97355 -66.18979 35778 ft 371 kts 240°
2026-05-07 12:23 43.94440 -66.24833 35776 ft 371 kts 240°
2026-05-07 12:23 43.91491 -66.30743 35776 ft 370 kts 240°
2026-05-07 12:24 43.88557 -66.36613 35777 ft 370 kts 240°
2026-05-07 12:24 43.85640 -66.42437 35773 ft 370 kts 240°
2026-05-07 12:25 43.82701 -66.48290 35766 ft 369 kts 240°
2026-05-07 12:25 43.79764 -66.54129 35768 ft 369 kts 240°
2026-05-07 12:26 43.76842 -66.59925 35768 ft 368 kts 240°
2026-05-07 12:26 43.73908 -66.65738 35769 ft 368 kts 240°
2026-05-07 12:27 43.70986 -66.71513 35779 ft 368 kts 240°
2026-05-07 12:27 43.68051 -66.77303 35774 ft 367 kts 240°
2026-05-07 12:28 43.65120 -66.83075 35777 ft 367 kts 240°
2026-05-07 12:28 43.62202 -66.88811 35775 ft 366 kts 240°
2026-05-07 12:29 43.59261 -66.94581 35773 ft 366 kts 240°
2026-05-07 12:29 43.58077 -66.97630 35804 ft 359 kts 256°
2026-05-07 12:29 43.57802 -67.01060 35801 ft 361 kts 265°
2026-05-07 12:30 43.57835 -67.07971 35785 ft 363 kts 268°
2026-05-07 12:30 43.58091 -67.14937 35783 ft 364 kts 269°
2026-05-07 12:31 43.58452 -67.21921 35788 ft 365 kts 269°
2026-05-07 12:31 43.58863 -67.28866 35787 ft 366 kts 270°
2026-05-07 12:32 43.59305 -67.35863 35797 ft 366 kts 270°
2026-05-07 12:32 43.59764 -67.42873 35806 ft 367 kts 270°
2026-05-07 12:33 43.60467 -67.53424 35794 ft 368 kts 270°
2026-05-07 12:33 43.60936 -67.60416 35781 ft 368 kts 270°
2026-05-07 12:34 43.61407 -67.67470 35786 ft 369 kts 270°
2026-05-07 12:34 43.61878 -67.74566 35791 ft 370 kts 270°
2026-05-07 12:35 43.62344 -67.81605 35806 ft 371 kts 269°
2026-05-07 12:35 43.62810 -67.88717 35800 ft 371 kts 269°
2026-05-07 12:36 43.63275 -67.95826 35799 ft 372 kts 269°
2026-05-07 12:36 43.63734 -68.02914 35798 ft 372 kts 269°
2026-05-07 12:37 43.64192 -68.10061 35796 ft 373 kts 269°
2026-05-07 12:37 43.64643 -68.17116 35582 ft 367 kts 269°
2026-05-07 12:38 43.64867 -68.20628 35044 ft 366 kts 269°
2026-05-07 12:38 43.65091 -68.24135 34334 ft 365 kts 269°
2026-05-07 12:38 43.65313 -68.27610 33746 ft 360 kts 268°
2026-05-07 12:38 43.65532 -68.31007 33302 ft 349 kts 268°
2026-05-07 12:39 43.65741 -68.34305 32773 ft 341 kts 268°
2026-05-07 12:39 43.65942 -68.37544 32110 ft 337 kts 268°
2026-05-07 12:39 43.66138 -68.40737 31560 ft 330 kts 268°
2026-05-07 12:39 43.66326 -68.43835 31050 ft 324 kts 268°
2026-05-07 12:40 43.66513 -68.46902 30501 ft 318 kts 268°
2026-05-07 12:40 43.66693 -68.49953 30016 ft 313 kts 268°
2026-05-07 12:40 43.66871 -68.52914 29525 ft 305 kts 267°
2026-05-07 12:40 43.67043 -68.55804 29205 ft 309 kts 267°
2026-05-07 12:41 43.67211 -68.58890 29073 ft 333 kts 267°
2026-05-07 12:41 43.67385 -68.62195 29045 ft 356 kts 268°
2026-05-07 12:41 43.67572 -68.65716 29024 ft 377 kts 268°
2026-05-07 12:41 43.67776 -68.69365 29017 ft 383 kts 268°
2026-05-07 12:42 43.68209 -68.76656 29018 ft 380 kts 268°
2026-05-07 12:42 43.68645 -68.83924 29028 ft 380 kts 268°
2026-05-07 12:43 43.69067 -68.91120 29011 ft 380 kts 268°
2026-05-07 12:43 43.69484 -68.98347 29021 ft 378 kts 268°
2026-05-07 12:44 43.69895 -69.05621 29020 ft 380 kts 268°
2026-05-07 12:44 43.70300 -69.12898 29019 ft 378 kts 268°
2026-05-07 12:45 43.70695 -69.20096 29021 ft 378 kts 268°
2026-05-07 12:45 43.71087 -69.27369 29029 ft 378 kts 268°
2026-05-07 12:46 43.71472 -69.34563 29031 ft 377 kts 268°
2026-05-07 12:46 43.71854 -69.41840 29037 ft 379 kts 268°
2026-05-07 12:47 43.72231 -69.49117 29035 ft 378 kts 268°
2026-05-07 12:47 43.72469 -69.56317 29035 ft 373 kts 258°
2026-05-07 12:48 43.71498 -69.59591 29053 ft 376 kts 236°
2026-05-07 12:48 43.69422 -69.61890 29061 ft 398 kts 216°
2026-05-07 12:48 43.64132 -69.64565 29043 ft 406 kts 209°
2026-05-07 12:49 43.58737 -69.66870 29013 ft 409 kts 208°
2026-05-07 12:49 43.56020 -69.68007 28819 ft 407 kts 208°
2026-05-07 12:49 43.53325 -69.69138 28468 ft 399 kts 208°
2026-05-07 12:50 43.50677 -69.70259 27656 ft 394 kts 208°
2026-05-07 12:50 43.48063 -69.71390 26669 ft 391 kts 208°
2026-05-07 12:50 43.45510 -69.72513 25735 ft 387 kts 207°
2026-05-07 12:50 43.42961 -69.73645 25087 ft 379 kts 207°
2026-05-07 12:51 43.40492 -69.74732 24666 ft 366 kts 207°
2026-05-07 12:51 43.38110 -69.75777 24308 ft 352 kts 207°
2026-05-07 12:51 43.35816 -69.76786 23980 ft 340 kts 207°
2026-05-07 12:51 43.33609 -69.77767 23336 ft 337 kts 206°
2026-05-07 12:52 43.31401 -69.78761 22868 ft 329 kts 206°
2026-05-07 12:52 43.29243 -69.79725 22327 ft 323 kts 206°
2026-05-07 12:52 43.27123 -69.80675 21720 ft 319 kts 206°
2026-05-07 12:52 43.25025 -69.81617 21144 ft 315 kts 206°
2026-05-07 12:53 43.22951 -69.82549 20582 ft 311 kts 206°
2026-05-07 12:53 43.20903 -69.83470 20012 ft 308 kts 206°
2026-05-07 12:53 43.18897 -69.84372 19471 ft 305 kts 206°
2026-05-07 12:53 43.16887 -69.85275 18933 ft 302 kts 205°
2026-05-07 12:54 43.15568 -69.85868 18590 ft 301 kts 205°
2026-05-07 12:54 43.13489 -69.86817 18291 ft 331 kts 205°
2026-05-07 12:54 43.11258 -69.87837 18143 ft 341 kts 204°
2026-05-07 12:54 43.08298 -69.89148 18064 ft 333 kts 204°
2026-05-07 12:55 43.06081 -69.90120 18042 ft 337 kts 204°
2026-05-07 12:55 43.04569 -69.90783 18032 ft 336 kts 204°
2026-05-07 12:55 43.02375 -69.91744 18027 ft 334 kts 204°
2026-05-07 12:55 43.00154 -69.92720 18028 ft 335 kts 204°
2026-05-07 12:56 42.97921 -69.93703 18026 ft 336 kts 204°
2026-05-07 12:56 42.95702 -69.94681 18017 ft 335 kts 204°
2026-05-07 12:56 42.93486 -69.95657 17741 ft 333 kts 204°
2026-05-07 12:56 42.91283 -69.96627 17123 ft 331 kts 204°
2026-05-07 12:57 42.89116 -69.97579 16679 ft 320 kts 204°
2026-05-07 12:57 42.87027 -69.98492 16172 ft 311 kts 205°
2026-05-07 12:57 42.85018 -69.99374 15763 ft 302 kts 205°
2026-05-07 12:57 42.83034 -70.00249 15199 ft 297 kts 205°
2026-05-07 12:58 42.81090 -70.01110 14871 ft 287 kts 205°
2026-05-07 12:58 42.79210 -70.01945 14470 ft 284 kts 205°
2026-05-07 12:58 42.77340 -70.02803 14224 ft 284 kts 206°
2026-05-07 12:58 42.75483 -70.03671 14118 ft 278 kts 206°
2026-05-07 12:59 42.73640 -70.04555 14068 ft 281 kts 206°
2026-05-07 12:59 42.71823 -70.05441 14047 ft 280 kts 207°
2026-05-07 12:59 42.69997 -70.06340 14036 ft 279 kts 207°
2026-05-07 12:59 42.68166 -70.07261 14025 ft 279 kts 209°
2026-05-07 13:00 42.66614 -70.08738 14056 ft 271 kts 226°
2026-05-07 13:00 42.65332 -70.10621 14043 ft 270 kts 232°
2026-05-07 13:00 42.64206 -70.12671 14032 ft 270 kts 236°
2026-05-07 13:00 42.63205 -70.14824 14040 ft 270 kts 239°
2026-05-07 13:01 42.62303 -70.17026 14033 ft 270 kts 241°
2026-05-07 13:01 42.61457 -70.19300 14029 ft 270 kts 243°
2026-05-07 13:01 42.60706 -70.21647 14030 ft 270 kts 245°
2026-05-07 13:01 42.60021 -70.24031 14030 ft 270 kts 247°
2026-05-07 13:02 42.59373 -70.26430 14026 ft 271 kts 248°
2026-05-07 13:02 42.58746 -70.28826 14005 ft 272 kts 248°
2026-05-07 13:02 42.58132 -70.31225 13899 ft 265 kts 248°
2026-05-07 13:02 42.57529 -70.33602 13350 ft 265 kts 248°
2026-05-07 13:03 42.56931 -70.35963 12789 ft 263 kts 249°
2026-05-07 13:03 42.56337 -70.38303 12279 ft 261 kts 249°
2026-05-07 13:03 42.55748 -70.40620 11770 ft 258 kts 249°
2026-05-07 13:03 42.55171 -70.42889 11260 ft 257 kts 249°
2026-05-07 13:04 42.54587 -70.45179 10751 ft 255 kts 249°
2026-05-07 13:04 42.54009 -70.47435 10368 ft 251 kts 249°
2026-05-07 13:04 42.53460 -70.49627 10187 ft 239 kts 250°
2026-05-07 13:04 42.52956 -70.51716 10112 ft 226 kts 251°
2026-05-07 13:05 42.52487 -70.53698 9873 ft 223 kts 251°
2026-05-07 13:05 42.52018 -70.55706 9462 ft 223 kts 251°
2026-05-07 13:05 42.51548 -70.57719 8994 ft 225 kts 251°
2026-05-07 13:05 42.51073 -70.59749 8528 ft 227 kts 252°
2026-05-07 13:06 42.50600 -70.61781 8335 ft 219 kts 252°
2026-05-07 13:06 42.50166 -70.63671 8290 ft 206 kts 252°
2026-05-07 13:06 42.49755 -70.65455 8287 ft 187 kts 252°
2026-05-07 13:06 42.49376 -70.67106 7818 ft 184 kts 252°
2026-05-07 13:07 42.48987 -70.68769 7207 ft 190 kts 252°
2026-05-07 13:07 42.48583 -70.70484 6740 ft 190 kts 253°
2026-05-07 13:07 42.48183 -70.72194 6335 ft 188 kts 253°
2026-05-07 13:07 42.47789 -70.73890 5843 ft 190 kts 253°
2026-05-07 13:08 42.47391 -70.75612 5396 ft 191 kts 253°
2026-05-07 13:08 42.46994 -70.77322 5036 ft 190 kts 253°
2026-05-07 13:08 42.46591 -70.79061 4556 ft 195 kts 254°
2026-05-07 13:08 42.46167 -70.80812 4072 ft 197 kts 250°
2026-05-07 13:09 42.45258 -70.82186 3591 ft 205 kts 217°
2026-05-07 13:09 42.44044 -70.83199 3287 ft 203 kts 211°
2026-05-07 13:09 42.42809 -70.84014 3165 ft 190 kts 208°
2026-05-07 13:09 42.41561 -70.84770 3102 ft 199 kts 207°
2026-05-07 13:10 42.40323 -70.85520 3080 ft 194 kts 210°
2026-05-07 13:10 42.39125 -70.86367 3059 ft 196 kts 212°
2026-05-07 13:10 42.37921 -70.87269 3059 ft 199 kts 213°
2026-05-07 13:10 42.36719 -70.88188 2981 ft 199 kts 213°
2026-05-07 13:11 42.35528 -70.89098 2684 ft 193 kts 214°
2026-05-07 13:11 42.34337 -70.90002 2409 ft 193 kts 214°
2026-05-07 13:11 42.33236 -70.90831 2200 ft 172 kts 218°
2026-05-07 13:11 42.32298 -70.91780 2123 ft 175 kts 229°
2026-05-07 13:12 42.31645 -70.93095 2066 ft 159 kts 264°
2026-05-07 13:12 42.31702 -70.94571 2068 ft 166 kts 285°
2026-05-07 13:12 42.32079 -70.95894 1926 ft 132 kts 303°
2026-05-07 13:12 42.32660 -70.96731 1537 ft 120 kts 317°
2026-05-07 13:13 42.33200 -70.97574 1069 ft 117 kts 302°
2026-05-07 13:13 42.33638 -70.98531 647 ft 120 kts 306°
2026-05-07 13:13 42.34146 -70.99480 324 ft 127 kts 303°
2026-05-07 13:13 42.34639 -71.00412 101 ft 124 kts 305°
2026-05-07 13:14 42.35084 -71.01247 29 ft 86 kts 306°
2026-05-07 13:14 42.35332 -71.01713 31 ft 48 kts 306°
2026-05-07 13:14 42.35460 -71.01943 30 ft 20 kts 321°
2026-05-07 13:14 42.35549 -71.01906 30 ft 12 kts 64°
2026-05-07 13:15 42.35565 -71.01833 30 ft 5 kts 75°
2026-05-07 13:15 42.35568 -71.01821 30 ft 0 kts 75°
2026-05-07 13:15 42.35573 -71.01793 30 ft 12 kts 77°
2026-05-07 13:15 42.35611 -71.01702 30 ft 14 kts 37°
2026-05-07 13:16 42.35684 -71.01653 30 ft 9 kts 24°
2026-05-07 13:16 42.35730 -71.01628 30 ft 5 kts 21°
2026-05-07 13:16 42.35748 -71.01619 30 ft 2 kts 20°
2026-05-07 13:16 42.35802 -71.01593 30 ft 8 kts 19°
2026-05-07 13:17 42.35857 -71.01575 30 ft 7 kts 352°
2026-05-07 13:17 42.35927 -71.01634 30 ft 10 kts 329°
2026-05-07 13:17 42.35971 -71.01680 30 ft 5 kts 318°
2026-05-07 13:17 42.35986 -71.01697 30 ft 1 kts 318°
2026-05-07 13:18 42.35987 -71.01699 30 ft 0 kts 317°